OneWeb SL0301

operational
NORAD ID: 49090 Int'l Des: 2021-075 Owner: ONEWEBN Country: UK Constellation: oneweb
LEOCIRCULARPOLARONEWEB_TYPE

关于 OneWeb SL0301

正在加载描述...

实时位置

正在加载3D地球...

即将过境

高度历史

Altitude vs Time

uPlot chart will show altitude changes over time

两行轨道根数

1 49090U 21075R 25351.79606117 .00000386 00000-0 10378-2 0 9998
2 49090 87.8934 26.6846 0002152 96.2345 263.9029 13.12379013210772
Epoch: Dec 17, 2025 • Age: 12 hours

当前状态

高度 1223.3 km
速度 7.24 km/s
星下点 -23.61°S, 13.59°E
发射日期 Aug 21, 2021
运行时间 4.3 years
类型 internet

技术详情

分类 Payload
质量 148.00 kg
干质量 140.00 kg
总质量 148.00 kg
长度 1.30 m
直径 1.00 m
跨度 5.00 m
形状 Trapezoid+2 pan
制造商 ONEWUS
平台类型 ARROW
阶段状态 In Orbit
所有者/国家 ONEWEBN/UK

大型星座

Loading constellations...